• In Deutschland
  • Länderverzeichnis
  • Für 7 Tage
  • Wassertemperatur
  • Satellitenkarten
  • Wetterkarte
  • Widgets
  • user-avatar
    Anmelden

    Stündliche Wetter Fuessen

    Heute, 20 August, Montag

    Zeit Temperatur Niederschläge Wind Luftdruck Luftfeuchtigkeit
    00:00 +18°C° 0,2 mm 1 m/S 694 mmHg 95%
    01:00 +16°C° 0,2 mm 1 m/S 694 mmHg 95%
    02:00 +16°C° 0,1 mm 1 m/S 694 mmHg 96%
    03:00 +16°C° 0,1 mm 1 m/S 694 mmHg 96%
    04:00 +16°C° 0,1 mm 1 m/S 694 mmHg 96%
    05:00 +18°C° 0 mm 1 m/S 694 mmHg 95%
    06:00 +18°C° 0 mm 1 m/S 694 mmHg 94%
    07:00 +19°C° 0 mm 1 m/S 694 mmHg 94%
    08:00 +20°C° 0 mm 1 m/S 694 mmHg 87%
    09:00 +22°C° 0 mm 1 m/S 694 mmHg 81%
    10:00 +24°C° 0 mm 1 m/S 695 mmHg 75%
    11:00 +24°C° 0,5 mm 1 m/S 694 mmHg 74%
    12:00 +25°C° 0,5 mm 1 m/S 694 mmHg 73%
    13:00 +25°C° 0,5 mm 2 m/S 694 mmHg 72%
    14:00 +25°C° 0,8 mm 2 m/S 694 mmHg 75%
    15:00 +24°C° 0,8 mm 2 m/S 694 mmHg 77%
    16:00 +24°C° 0,8 mm 2 m/S 694 mmHg 80%
    17:00 +23°C° 1 mm 1 m/S 693 mmHg 84%
    18:00 +22°C° 1 mm 1 m/S 693 mmHg 88%
    19:00 +20°C° 1 mm 1 m/S 693 mmHg 92%
    20:00 +20°C° 0,2 mm 1 m/S 694 mmHg 93%
    21:00 +19°C° 0,2 mm 1 m/S 694 mmHg 94%
    22:00 +18°C° 0,2 mm 1 m/S 694 mmHg 95%
    23:00 +18°C° 0 mm 1 m/S 694 mmHg 96%

    Morgen, 21 August, Dienstag

    Zeit Temperatur Niederschläge Wind Luftdruck Luftfeuchtigkeit
    00:00 +18°C° 0 mm 1 m/S 694 mmHg 96%
    01:00 +16°C° 0 mm 1 m/S 694 mmHg 96%
    02:00 +16°C° 0 mm 1 m/S 694 mmHg 96%
    03:00 +16°C° 0 mm 1 m/S 693 mmHg 96%
    04:00 +15°C° 0 mm 1 m/S 693 mmHg 96%
    05:00 +16°C° 0 mm 1 m/S 693 mmHg 95%
    06:00 +18°C° 0 mm 1 m/S 694 mmHg 94%
    07:00 +18°C° 0 mm 1 m/S 694 mmHg 93%
    08:00 +20°C° 0 mm 1 m/S 694 mmHg 84%
    09:00 +22°C° 0 mm 1 m/S 694 mmHg 76%
    10:00 +25°C° 0 mm 1 m/S 695 mmHg 68%
    11:00 +25°C° 0,2 mm 2 m/S 694 mmHg 66%
    12:00 +26°C° 0,2 mm 2 m/S 694 mmHg 64%
    13:00 +27°C° 0,2 mm 2 m/S 694 mmHg 63%
    14:00 +26°C° 1 mm 2 m/S 694 mmHg 67%
    15:00 +26°C° 1 mm 2 m/S 693 mmHg 72%
    16:00 +25°C° 1 mm 2 m/S 693 mmHg 76%
    17:00 +24°C° 1 mm 2 m/S 693 mmHg 81%
    18:00 +23°C° 1 mm 1 m/S 693 mmHg 86%
    19:00 +21°C° 1 mm 1 m/S 693 mmHg 91%
    20:00 +21°C° 1 mm 1 m/S 693 mmHg 92%
    21:00 +20°C° 1 mm 1 m/S 693 mmHg 93%
    22:00 +19°C° 1 mm 1 m/S 694 mmHg 94%
    23:00 +19°C° 0,2 mm 1 m/S 694 mmHg 94%

    übermorgen, 22 August, Mittwoch

    Zeit Temperatur Niederschläge Wind Luftdruck Luftfeuchtigkeit
    00:00 +19°C° 0,2 mm 1 m/S 693 mmHg 94%
    01:00 +19°C° 0,2 mm 1 m/S 693 mmHg 94%
    02:00 +18°C° 0,1 mm 1 m/S 693 mmHg 94%
    03:00 +18°C° 0,1 mm 1 m/S 693 mmHg 94%
    04:00 +18°C° 0,1 mm 1 m/S 693 mmHg 94%
    05:00 +18°C° 0,1 mm 1 m/S 693 mmHg 93%
    06:00 +19°C° 0,1 mm 1 m/S 693 mmHg 92%
    07:00 +19°C° 0,1 mm 1 m/S 693 mmHg 91%
    08:00 +21°C° 0,3 mm 1 m/S 693 mmHg 85%
    09:00 +23°C° 0,3 mm 1 m/S 694 mmHg 80%
    10:00 +24°C° 0,3 mm 1 m/S 694 mmHg 74%
    11:00 +25°C° 1,2 mm 1 m/S 693 mmHg 74%
    12:00 +25°C° 1,2 mm 1 m/S 693 mmHg 74%
    13:00 +26°C° 1,2 mm 1 m/S 693 mmHg 73%
    14:00 +25°C° 1,2 mm 1 m/S 693 mmHg 75%
    15:00 +25°C° 1,2 mm 1 m/S 693 mmHg 76%
    16:00 +23°C° 1,2 mm 0 m/S 693 mmHg 78%
    17:00 +21°C° 0,7 mm 0 m/S 692 mmHg 82%
    18:00 +20°C° 0,7 mm 0 m/S 692 mmHg 85%
    19:00 +19°C° 0,7 mm 0 m/S 692 mmHg 89%
    20:00 +20°C° 0,2 mm 1 m/S 692 mmHg 89%
    21:00 +20°C° 0,2 mm 1 m/S 693 mmHg 90%
    22:00 +19°C° 0,2 mm 1 m/S 693 mmHg 90%
    23:00 +19°C° 0,1 mm 1 m/S 692 mmHg 90%

    23 August, Donnerstag

    Zeit Temperatur Niederschläge Wind Luftdruck Luftfeuchtigkeit
    00:00 +19°C° 0,1 mm 1 m/S 692 mmHg 90%
    01:00 +17°C° 0,1 mm 2 m/S 692 mmHg 90%
    02:00 +18°C° 0 mm 1 m/S 692 mmHg 90%
    03:00 +18°C° 0 mm 1 m/S 692 mmHg 90%
    04:00 +16°C° 0 mm 1 m/S 691 mmHg 90%
    05:00 +18°C° 0,1 mm 1 m/S 691 mmHg 89%
    06:00 +19°C° 0,1 mm 1 m/S 691 mmHg 88%
    07:00 +19°C° 0,1 mm 1 m/S 692 mmHg 87%
    08:00 +21°C° 0,2 mm 1 m/S 692 mmHg 80%
    09:00 +23°C° 0,2 mm 1 m/S 692 mmHg 73%
    10:00 +25°C° 0,2 mm 1 m/S 692 mmHg 66%
    11:00 +25°C° 1 mm 1 m/S 692 mmHg 68%
    12:00 +25°C° 1 mm 1 m/S 691 mmHg 69%
    13:00 +25°C° 1 mm 1 m/S 691 mmHg 71%
    14:00 +25°C° 2 mm 1 m/S 691 mmHg 75%
    15:00 +24°C° 2 mm 1 m/S 690 mmHg 78%
    16:00 +22°C° 2 mm 0 m/S 690 mmHg 82%
    17:00 +23°C° 0,8 mm 1 m/S 690 mmHg 84%
    18:00 +21°C° 0,8 mm 1 m/S 690 mmHg 87%
    19:00 +20°C° 0,8 mm 1 m/S 690 mmHg 89%
    20:00 +20°C° 0,3 mm 1 m/S 690 mmHg 90%
    21:00 +19°C° 0,3 mm 1 m/S 690 mmHg 90%
    22:00 +18°C° 0,3 mm 2 m/S 690 mmHg 90%
    23:00 +17°C° 0,1 mm 2 m/S 689 mmHg 89%

    24 August, Freitag

    Zeit Temperatur Niederschläge Wind Luftdruck Luftfeuchtigkeit
    00:00 +17°C° 0,1 mm 2 m/S 689 mmHg 88%
    01:00 +17°C° 0,1 mm 2 m/S 689 mmHg 87%
    02:00 +16°C° 0,1 mm 2 m/S 688 mmHg 87%
    03:00 +16°C° 0,1 mm 2 m/S 688 mmHg 86%
    04:00 +16°C° 0,1 mm 2 m/S 688 mmHg 86%
    05:00 +16°C° 0,1 mm 2 m/S 688 mmHg 85%
    06:00 +17°C° 0,1 mm 2 m/S 688 mmHg 84%
    07:00 +18°C° 0,1 mm 2 m/S 687 mmHg 83%
    08:00 +20°C° 0,3 mm 2 m/S 688 mmHg 76%
    09:00 +23°C° 0,3 mm 1 m/S 688 mmHg 69%
    10:00 +25°C° 0,3 mm 1 m/S 688 mmHg 61%
    11:00 +25°C° 0,8 mm 1 m/S 687 mmHg 64%
    12:00 +25°C° 0,8 mm 2 m/S 687 mmHg 66%
    13:00 +25°C° 0,8 mm 2 m/S 687 mmHg 69%
    14:00 +23°C° 2,1 mm 2 m/S 686 mmHg 77%
    15:00 +20°C° 2,1 mm 2 m/S 686 mmHg 85%
    16:00 +19°C° 2,1 mm 2 m/S 686 mmHg 93%
    17:00 +18°C° 3,1 mm 2 m/S 686 mmHg 94%
    18:00 +17°C° 3,1 mm 2 m/S 686 mmHg 96%
    19:00 +16°C° 3,1 mm 2 m/S 686 mmHg 97%
    20:00 +16°C° 3,9 mm 2 m/S 686 mmHg 98%
    21:00 +15°C° 3,9 mm 2 m/S 687 mmHg 98%
    22:00 +14°C° 3,9 mm 2 m/S 687 mmHg 98%
    23:00 +14°C° 3,2 mm 2 m/S 687 mmHg 98%

    25 August, Samstag

    Zeit Temperatur Niederschläge Wind Luftdruck Luftfeuchtigkeit
    00:00 +13°C° 3,2 mm 2 m/S 687 mmHg 98%
    01:00 +13°C° 3,2 mm 2 m/S 687 mmHg 98%
    02:00 +12°C° 2,1 mm 2 m/S 686 mmHg 98%
    03:00 +12°C° 2,1 mm 2 m/S 686 mmHg 98%
    04:00 +10°C° 2,1 mm 2 m/S 686 mmHg 98%
    05:00 +10°C° 2,1 mm 2 m/S 686 mmHg 98%
    06:00 +11°C° 2,1 mm 1 m/S 686 mmHg 98%
    07:00 +10°C° 2,1 mm 1 m/S 686 mmHg 98%
    08:00 +10°C° 2,4 mm 1 m/S 686 mmHg 98%
    09:00 +10°C° 2,4 mm 1 m/S 686 mmHg 98%
    10:00 +10°C° 2,4 mm 1 m/S 686 mmHg 98%
    11:00 +10°C° 2,5 mm 1 m/S 686 mmHg 98%
    12:00 +10°C° 2,5 mm 1 m/S 686 mmHg 98%
    13:00 +9°C° 2,5 mm 2 m/S 687 mmHg 98%
    14:00 +9°C° 2,3 mm 2 m/S 687 mmHg 98%
    15:00 +9°C° 2,3 mm 2 m/S 687 mmHg 98%
    16:00 +9°C° 2,3 mm 2 m/S 687 mmHg 98%
    17:00 +8°C° 2,1 mm 2 m/S 687 mmHg 98%
    18:00 +9°C° 2,1 mm 1 m/S 687 mmHg 98%
    19:00 +9°C° 2,1 mm 1 m/S 688 mmHg 98%
    20:00 +9°C° 1,5 mm 1 m/S 688 mmHg 98%
    21:00 +9°C° 1,5 mm 1 m/S 688 mmHg 98%
    22:00 +9°C° 1,5 mm 1 m/S 688 mmHg 98%
    23:00 +9°C° 1,1 mm 1 m/S 688 mmHg 98%
    Mehr zeigen